sat.trackr.live / text

‹ back to catalog

STARLINK-11594 [DTC]

NORAD 64320 · 2025-124D

PAYLOAD ACTIVE UNKNOWN

§ Identity

Operator
Country
US
Launch date
2025-06-10
Launch site
AFETR
Launch vehicle
Mass (kg)
RCS (m²)

Purposes: comms

External: N2YO · Heavens-Above · Gunter

§ Orbital elements

Epoch: 2026-05-24T18:09:34.994592Z

Period
91.67 min
Inclination
42.9980°
Eccentricity
0.0001277
Mean motion
15.70881331 rev/d
Perigee alt
355.5 km
Apogee alt
357.2 km
Semi-major
6,734.5 km
B*
1.5719e-3
RAAN
291.0752°
Arg perigee
300.4114°
Mean anomaly
59.6627°
Rev number
5,479

§ Raw data

STARLINK-11594 [DTC]1 64320U 25124D   26144.75665503  .00206698  00000+0  15719-2 0  99982 64320  42.9980 291.0752 0001277 300.4114  59.6627 15.70881331 54792

JSON: /api/v1/satellites/64320 · /tle

For live sub-satellite position, see the globe view (requires WebGL).

§ Visibility from observer

Set your observer location to see the next 7 days of passes ≥ 10°. The values pass through the URL so the page stays shareable.

No JS? Fill the form by hand. The geolocation button needs JavaScript.